Velovelo
Português Nederlands 日本語 中文
Español English čeština slovenčina
русский italiano polski norsk
français Deutsch svenska عربي
 
 vorige Seite
 einem Freund senden
 Um zu drucken
 ---> Les Boucles du Verdon 2008 : Résultats du 93 km

Résultats électroniques réalisés par KMS informatique (08 92 68 33 13 - 0,34€/mn) notre partenaire chronométrage.

ClassNomPrénomCat.C.c..Temps....Moy..
1 GIL-LUNA JEAN-MICHEL C 1 02:31:19 36.88
2 LAURENS FREDERIC C 2 02:31:20 36.87
3 EKINDJIAN STEPHANE D 1 02:32:11 36.67
4 PINEDE CHRISTIAN E 1 02:32:13 36.66
5 BRUN REGIS E 2 02:32:13 36.66
6 MICHEL JEAN-CLAUDE E 3 02:32:14 36.65
7 FERRY JEAN-FRANCOIS E 4 02:32:14 36.65
8 BARTINA GUILLAUME C 3 02:32:14 36.65
9 GUIPPON GERALD D 2 02:32:15 36.65
10 LANTELME IGOR D 3 02:32:15 36.65
11 ROTA HERVE D 4 02:32:16 36.65
12 KURKDI PATRICK E 5 02:32:16 36.65
13 HABY AUREL F 1 02:32:16 36.65
14 LASSALE JEROME D 5 02:32:18 36.64
15 PETIPREZ BENOIT D 6 02:32:28 36.60
16 AGNEL STEPHANE E 6 02:32:49 36.51
17 PIVAIN PATRICK E 7 02:34:21 36.15
18 COPPONI BRUNO D 7 02:34:34 36.10
19 PIVAIN CLAUDE D 8 02:34:35 36.10
20 GALLEN HERVE F 2 02:34:40 36.08
21 PARA GEROME D 9 02:34:44 36.06
22 DRIEUX ERIC E 8 02:36:14 35.72
23 TURINI JEROME E 9 02:36:19 35.70
24 QUIN JEAN-YVES E 10 02:36:19 35.70
25 MELANI PHILIPPE E 11 02:37:58 35.32
26 VINCENTI BRUNO E 12 02:37:58 35.32
27 GRANON FELIX G 1 02:37:59 35.32
28 DELESSERT GUY F 3 02:38:00 35.32
29 GUY CHRISTOPHE D 10 02:38:03 35.31
30 BOULAN OLIVIER D 11 02:38:04 35.30
31 DELAGE MARC F 4 02:38:05 35.30
32 RICHAUD PATRICE C 4 02:38:05 35.30
33 BOUCAULT CYRIL C 5 02:38:07 35.29
34 DIAZ CARLOS D 12 02:39:26 35.00
35 DOLFI ROBERT D 13 02:39:28 34.99
36 BERTET ALAIN G 2 02:39:28 34.99
37 PUISSEGUR JOSEPH G 3 02:39:29 34.99
38 BERTOLIO FABRICE E 13 02:39:29 34.99
39 SCARDINA JOSEPH E 14 02:39:30 34.98
40 MARTIN ALEX E 15 02:39:30 34.98
41 GOASMAT YANN D 14 02:39:30 34.98
42 LENAIN PASCAL F 5 02:39:30 34.98
43 BELTRAN THIERRY E 16 02:39:32 34.98
44 VECRIN JEAN-CLUADE G 4 02:39:32 34.98
45 BILLO GERARD D 15 02:39:33 34.97
46 BENEDETTO VALERE E 17 02:39:33 34.97
47 GONZALEZ JEAN-PAUL E 18 02:39:34 34.97
48 HODOUL CHRISTIAN D 16 02:39:34 34.97
49 MARINO MARIO E 19 02:39:35 34.97
50 MESSY PATRICK E 20 02:39:35 34.97
51 LEJEUNE ELOIC D 17 02:39:35 34.97
52 BOONEN JEAN-PHILIPPE D 18 02:39:36 34.96
53 BERGAGLIA DENIO E 21 02:39:36 34.96
54 CASAGRANDE ARMAND F 6 02:39:37 34.96
55 DUMAY DAVID D 19 02:39:37 34.96
56 BAIMA JEROME D 20 02:40:46 34.71
57 MICHEL JEAN-MARC E 22 02:40:47 34.71
58 VARLEZ PASCAL E 23 02:40:47 34.71
59 LABAUME CHRISTOPHE D 21 02:40:48 34.70
60 MORRA ALAIN E 24 02:41:03 34.65
61 GRANA FERNAND F 7 02:41:37 34.53
62 CALABRO PHILIPPE E 25 02:43:30 34.13
63 COMANIVK MARK G 5 02:43:32 34.12
64 BERTIN PATRICK E 26 02:43:32 34.12
65 BRIANT JACQUES G 6 02:43:34 34.11
66 MORTER DAVID D 22 02:43:35 34.11
67 COMTESTI YVES F 8 02:43:35 34.11
68 EXCOFFIER CLAUDE F 9 02:43:36 34.11
69 MARTOS FRANCOIS E 27 02:43:37 34.10
70 RICAUD RODOLPHE E 28 02:43:37 34.10
71 FAURE NICOLAS D 23 02:43:37 34.10
72 MALLET CHRISTOPHE D 24 02:44:01 34.02
73 DELAHAYE DIDIER E 29 02:44:53 33.84
74 BOUVIER HERVE E 30 02:44:56 33.83
75 ZANNETTACCI BRUNO E 31 02:44:56 33.83
76 CANNARELLA ERIC E 32 02:44:56 33.83
77 GOIECO PASCAL E 33 02:44:57 33.83
78 METIVIER FREDERIC E 34 02:44:57 33.83
79 BASCHENIS MARCEL G 7 02:44:57 33.83
80 MOTREFF JEAN F 10 02:44:57 33.83
81 QUIN JEAN-YVES E 35 02:44:59 33.82
82 BISCARRAT FREDERIC D 25 02:45:01 33.81
83 LAURENT DENIS E 36 02:45:06 33.80
84 CATALA CHRISTOPHE E 37 02:45:06 33.80
85 CHAMBEFORT JPAUL F 11 02:45:07 33.79
86 BOUHET CYRIL D 26 02:47:22 33.34
87 LIZARRALDE JEAN-CLAUDE F 12 02:47:25 33.33
88 MARCHESSAN X F 13 02:47:28 33.32
89 PINATEL PHILIPPE E 38 02:47:28 33.32
90 DE-VELLIS PIERRE-JEAN F 14 02:47:30 33.31
91 LOPEZ MICHEL D 27 02:47:31 33.31
92 DELEPINE JEAN-ROLAND E 39 02:47:32 33.31
93 CARPENTIER BRUNO E 40 02:49:12 32.98
94 ESCLAPEZ ERIC E 41 02:49:12 32.98
95 PIVAIN JACKY F 15 02:49:12 32.98
96 PAUL JEAN-PHILIPPE D 28 02:49:14 32.97
97 HERNANDEZ STEPHANE D 29 02:49:14 32.97
98 JACQUES SEBASTIEN D 30 02:49:15 32.97
99 MICHELIS DANIEL F 16 02:49:16 32.97
100 RIASSETTO BERNARD F 17 02:49:16 32.97
101 MERLIN DIDIER D 31 02:49:16 32.97
102 BRUGE FRANK D 32 02:49:17 32.96
103 GARDELLE LAURENT E 42 02:49:18 32.96
104 RASTELLO NICOLAS D 33 02:49:18 32.96
105 DUMAS STEPHANE D 34 02:49:19 32.96
106 GLAUDEL JEAN-ERIC E 43 02:49:19 32.96
107 RIPEPI DAMIEN C 6 02:49:19 32.96
108 GIRAUD OLIVIER E 44 02:49:20 32.95
109 LIEVRE PHILIPPE E 45 02:49:20 32.95
110 MUSSET BERNARD F 18 02:49:20 32.95
111 FOURET FREDERIC D 35 02:49:40 32.89
112 DOLFI ROBERT F 19 02:51:51 32.47
113 VALADON DIDIER F 20 02:51:53 32.46
114 CASTELLITI ROBERT E 46 02:51:54 32.46
115 VALLET ANTHONY C 7 02:51:56 32.45
116 POLLEBRO JEROME C 8 02:51:56 32.45
117 VENTO LOUIS G 8 02:51:59 32.45
118 SELLES PHILIPPE E 47 02:52:01 32.44
119 LABAT FREDERIC D 36 02:52:04 32.43
120 CORNA STEPHANE E 48 02:52:04 32.43
121 BRUZZESE SYLVAIN E 49 02:52:05 32.43
122 GIORGI SYLVAIN F 21 02:53:44 32.12
123 ANGONIN LAURENT E 50 02:53:47 32.11
124 BARELIER ARNAUD D 37 02:53:51 32.10
125 FLOHIC J-CLAUDE F 22 02:53:55 32.08
126 CONY MICHEL E 51 02:53:56 32.08
127 LE-GOFF NICOLAS C 9 02:55:42 31.76
128 LE-GOFF LUDOVIC D 38 02:55:42 31.76
129 TIRE LAURENT C 10 02:55:45 31.75
130 DOSTES MAX G 9 02:55:53 31.73
131 INCONNU 2753 E 52 02:56:43 31.58
132 LLOPIS MICKAEL C 11 02:56:43 31.58
133 BREYTON DIDIER E 53 02:56:44 31.57
134 BOZONNIER CLAUDE F 23 02:56:46 31.57
135 TRIPODI CLAUDE G 10 02:56:49 31.56
136 TREGUIR EMMANUELLE B 1 02:56:49 31.56
137 PANZERI FREDERIC E 54 02:56:49 31.56
138 PASCAL ERIC E 55 02:56:51 31.55
139 RICAUD JACQUES E 56 02:56:52 31.55
140 DONZELLI GILBERT F 24 02:56:56 31.54
141 MAGRO JEROME C 12 02:56:56 31.54
142 OLIVERO JEAN E 57 02:56:57 31.53
143 VECRIN BERNARD F 25 02:57:01 31.52
144 JEANJEAN GERARD F 26 02:57:02 31.52
145 CAMUS FRANCK E 58 02:57:08 31.50
146 GRISANZIO HENRI F 27 02:58:01 31.35
147 CHAMBON STEPHANE D 39 02:58:02 31.34
148 ESCALIERE ROBERT E 59 02:58:02 31.34
149 ELLEON LAURENT D 40 02:58:03 31.34
150 FAUSTIN MICHEL E 60 02:58:03 31.34
151 SASSO FABRICE E 61 02:58:05 31.33
152 OELKER FRANK E 62 02:58:06 31.33
153 ROMBEAUT HANS G 11 02:58:07 31.33
154 LEBOT JEAN-MARC E 63 02:58:11 31.32
155 NEY JEAN-MARIE E 64 02:58:27 31.27
156 NOIROT ERIC E 65 03:00:01 31.00
157 DUCROT CHRISTIAN E 66 03:00:08 30.98
158 GASQUET ROBERT G 12 03:00:13 30.96
159 BABINSKI PATRICK F 28 03:00:18 30.95
160 RECHE PASCAL E 67 03:01:20 30.77
161 VERZRONLI ALAIN F 29 03:01:22 30.77
162 PIAZZA SERGE E 68 03:01:22 30.77
163 NICOLAIEFF LUC F 30 03:01:25 30.76
164 VIGAND PHILIPPE E 69 03:01:28 30.75
165 DUBLE FREDERIC E 70 03:01:29 30.75
166 GALLEN NATHALIE B 2 03:01:38 30.72
167 VIAL DIDIER D 41 03:02:44 30.54
168 PUGLIESI JEAN-NOEL D 42 03:02:44 30.54
169 LEVROT CHRISTIAN F 31 03:02:48 30.53
170 GUILBERT JEAN-PIERRE E 71 03:02:48 30.53
171 PAGES MICHEL G 13 03:02:49 30.52
172 BRICYE ERIC D 43 03:02:50 30.52
173 PALLEN NORBERT D 44 03:02:50 30.52
174 MASTICO FABRICE D 45 03:02:52 30.51
175 AUZET STEPHANE E 72 03:02:52 30.51
176 PINONCELY JEAN-FRANCOIS F 32 03:02:53 30.51
177 MAGNAN FREDERIC D 46 03:02:54 30.51
178 GUARESE SEBASTIEN E 73 03:02:54 30.51
179 ARTUFEL GEORGES F 33 03:02:55 30.51
180 BELTRAM JEAN-MARC D 47 03:02:56 30.50
181 SCAVINI JEAN-CHRISTOPHE E 74 03:03:03 30.48
182 PAVEAU LAETITIA A 1 03:04:08 30.30
183 KIRSTETTER PATRICK F 34 03:04:11 30.30
184 PESTUGGIA PATRICK E 75 03:04:13 30.29
185 SAMSON SERGE F 35 03:04:15 30.28
186 EYMAR-DAUPHIN PATRICK F 36 03:04:22 30.27
187 EXBRAYAT CAROL B 3 03:06:19 29.95
188 BORSA BERNARD E 76 03:06:39 29.90
189 NEGRI JOEL D 48 03:07:48 29.71
190 BOUSBIH HAFED E 77 03:07:52 29.70
191 INCONNU 2941 E 78 03:07:58 29.69
192 BONOMI SERGE E 79 03:07:58 29.69
193 LABERTRANDE PAUL G 14 03:08:01 29.68
194 DAIMINO MICHEL G 15 03:08:02 29.68
195 DEKEYSER STEPHANE E 80 03:08:03 29.67
196 DE-STEFANO YVAN D 49 03:08:04 29.67
197 BLEUSE MARC F 37 03:08:10 29.65
198 AGOSTI JEAN-MARIE F 38 03:09:58 29.37
199 AMICE ALAIN F 39 03:10:01 29.37
200 GARCIN PATRICK E 81 03:10:05 29.36
201 DI-FALCO PATRICK E 82 03:10:07 29.35
202 CHARA CLAUDE F 40 03:10:10 29.34
203 MAGRE ALAIN E 83 03:10:18 29.32
204 PINEDA GERARD G 16 03:10:32 29.29
205 GHEBBANO DANIEL F 41 03:10:50 29.24
206 MANSELLE CHARLES F 42 03:10:52 29.24
207 EMIG FRANCOIS E 84 03:10:53 29.23
208 MORET-ES-JEAN BERNARD F 43 03:10:55 29.23
209 BENSOUSSAN ALAIN E 85 03:10:56 29.22
210 BOUVY MARC E 86 03:10:58 29.22
211 CORRIGAN JACKIE B 4 03:11:04 29.20
212 AMBROSINO CLAUDE F 44 03:11:09 29.19
213 MENNESON LAURENT E 87 03:12:04 29.05
214 AURIC JEAN-PIERRE E 88 03:12:09 29.04
215 LAIRIS JP E 89 03:12:11 29.03
216 CADENEL GILLES E 90 03:12:16 29.02
217 GAUTHIER CHRISTIAN F 45 03:12:20 29.01
218 RAULT EMMANUEL D 50 03:12:50 28.94
219 LE-GALL MARC E 91 03:12:52 28.93
220 TREMELLAT HENRI F 46 03:12:53 28.93
221 ROLLOT SERGE F 47 03:12:57 28.92
222 BOETTI MAURICE F 48 03:12:57 28.92
223 BOUHOURDIN HUBERT D 51 03:12:58 28.92
224 LABOUEBE GILLES E 92 03:13:00 28.91
225 TOLOSANO MICHEL E 93 03:13:00 28.91
226 MANCINI ROBERT E 94 03:14:07 28.75
227 BERMON RICHARD F 49 03:14:16 28.72
228 BOYER RICHARD E 95 03:14:16 28.72
229 VIARD DAVID D 52 03:16:11 28.44
230 DUCHON ALEXANDRE E 96 03:16:27 28.40
231 DESPRETZ SAMUEL E 97 03:16:31 28.39
232 HOLVOES GUY E 98 03:16:35 28.38
233 LE-DROUMAGUET FRANCOIS E 99 03:16:37 28.38
234 TISSINIES DENIS D 53 03:16:40 28.37
235 MANSINCAL ALAIN G 17 03:16:41 28.37
236 MASTICO GUILLAUME C 13 03:16:47 28.36
237 PALA ROBERT E 100 03:17:27 28.26
238 DEMANGE BERNARD G 18 03:18:31 28.11
239 PAYAN SERGE F 50 03:18:31 28.11
240 FAURE-BRAC GERARD F 51 03:18:32 28.11
241 CORVINO GERARD F 52 03:18:34 28.10
242 BARRAUD JACQUES D 54 03:18:36 28.10
243 PINCZON-DU-SEL OLIVIER E 101 03:18:36 28.10
244 PINERI CHANTAL B 5 03:18:40 28.09
245 BARET GUILBERT E 102 03:19:03 28.03
246 AGATI PATRICK E 103 03:20:07 27.88
247 TIRE 2936CHRISTIAN E 104 03:20:11 27.87
248 EXERTIER GEORGES G 19 03:20:12 27.87
249 OGER COLETTE B 6 03:20:14 27.87
250 SIEURAC YVES D 55 03:20:17 27.86
251 ISNARD GILBERT G 20 03:20:18 27.86
252 PELLEGRINO LAURENT D 56 03:20:21 27.85
253 CORSI LAURENT D 57 03:21:12 27.73
254 CHAILLAN CHRISTOPHE D 58 03:22:21 27.58
255 RIOSSET OLIVIER E 105 03:22:23 27.57
256 BECCARIA GASTON F 53 03:22:23 27.57
257 LOUBET FREDERIC E 106 03:22:25 27.57
258 LABARRE DOMINIQUE E 107 03:22:25 27.57
259 COQUET PATRICK F 54 03:22:35 27.54
260 ROGER LAURENT D 59 03:22:41 27.53
261 PIERLOT THIERRY E 108 03:22:48 27.51
262 DEBONO JACKY F 55 03:24:50 27.24
263 LAUZIER ALAIN F 56 03:25:08 27.20
264 LA-ROUTURROU MICHEL F 57 03:25:13 27.19
265 GABRIELLI ROBERT E 109 03:25:13 27.19
266 LUSETTI FABRICE D 60 03:25:14 27.19
267 SABLIER RICHARD F 58 03:25:14 27.19
268 GIRARDET PHILIPPE F 59 03:25:16 27.18
269 GILETTA FABRICE D 61 03:25:16 27.18
270 OLIVIER-LESTRE FABRICE E 110 03:25:18 27.18
271 DOUGY LAURENT E 111 03:28:14 26.80
272 FOSSAT JEAN-MARC F 60 03:28:21 26.78
273 CHABOT CHRISTOPHE D 62 03:28:51 26.72
274 CHEVALIER PASCAL D 63 03:28:53 26.71
275 CUCCIA GILBERT E 112 03:29:04 26.69
276 PARISET FREDERIQUE B 7 03:29:08 26.68
277 INCONNU 2937 E 113 03:32:04 26.31
278 LEROY PHILIPPE F 61 03:32:40 26.24
279 PEBRE JEAN E 114 03:33:27 26.14
280 LUCHETTI JEAN-JACQUES F 62 03:33:27 26.14
281 DEVIENNE BERNARD G 21 03:33:29 26.14
282 CHAUVREAU FRANCK E 115 03:33:30 26.14
283 MASSOT ARNAUD G 22 03:33:55 26.08
284 MULLER GILBERT G 23 03:33:59 26.08
285 BIANCHI JEAN-CLAUDE G 24 03:36:04 25.83
286 PAPETTI FREDERIC C 14 03:36:14 25.81
287 GRANGEAT JEAN-MARIE C 15 03:36:15 25.80
288 ARBERET MARIE B 8 03:37:42 25.63
289 PASCAL CLAUDE F 63 03:39:05 25.47
290 BERTIER JEAN-MARC F 64 03:39:16 25.45
291 NICOLLET CLAUDE F 65 03:39:16 25.45
292 PARIS FABIENNE B 9 03:39:24 25.43
293 BORGIS NOEL F 66 03:39:27 25.43
294 VANDEWANE MICHEL F 67 03:40:57 25.25
295 BOREL LAURENCE B 10 03:41:01 25.25
296 DELORT ANNE B 11 03:41:03 25.24
297 PIERI FABRICE D 64 03:42:05 25.13
298 CENERINO MICHEL G 25 03:42:12 25.11
299 DANTI CHRISTIAN F 68 03:42:30 25.08
300 NERI ROGER F 69 03:42:31 25.08
301 DEFFRASNES BERNARD F 70 03:42:41 25.06
302 RODOT THERESE B 12 03:42:42 25.06
303 FORNASERO HENRI G 26 03:44:15 24.88
304 PICQ THIERRY G 27 03:44:17 24.88
305 PACINI CHRISTIAN F 71 03:45:10 24.78
306 BOZZI JOSETTE B 13 03:45:26 24.75
307 LACAMPE FRANCIS G 28 03:45:35 24.74
308 AUBERT CLAUDE F 72 03:47:16 24.55
309 PEPIN FRANCOIS F 73 03:47:17 24.55
310 VIGNE VINCENT E 116 03:47:46 24.50
311 HAREL DOMINIQUE E 117 03:48:02 24.47
312 MOAL SERGE F 74 03:48:55 24.38
313 GRYNBLAT JEAN-CLAUDE F 75 03:49:09 24.35
314 QUILES GEORGES G 29 03:50:34 24.20
315 KELBEL ANNE B 14 03:53:30 23.90
316 CHICHIGNOUD PIERRE E 118 03:53:31 23.90
317 MARTIN ELISE A 2 03:58:19 23.41
318 LEGAT DANIEL G 30 03:58:21 23.41
319 HENRIC SERGE E 119 03:58:49 23.37
320 GRAS SEBASTIEN C 16 03:58:52 23.36
321 SIARRAS ANDY D 65 03:59:50 23.27
322 TOSETTO GILLES G 31 04:00:10 23.23
323 GINOUX PHILIPPE D 66 04:01:05 23.15
324 SALFATI GILLES E 120 04:02:07 23.05
325 MONACI MARIO G 32 04:02:25 23.02
326 ANTOINE JEAN-FRANCOIS E 121 04:02:26 23.02
327 GUIPPONI PATRICK E 122 04:05:43 22.71
328 ADRAI ROGER G 33 04:06:19 22.65
329 NIVET JEAN-NOEL G 34 04:08:21 22.47
330 SOUILHOL JEAN-LOUIS F 76 04:11:36 22.18
331 ESTEVE DOMINIQUE F 77 04:12:50 22.07
332 ELZEARD JEAN-PIERRE G 35 04:16:17 21.77
333 GEOTGE FABIENNE B 15 04:19:37 21.49
334 SANCHEZ LUIS-MANUEL F 78 04:22:58 21.22
335 BERTRAND CAROLE B 16 04:33:19 20.42
336 SALTINI LUC F 79 04:40:05 19.92
337 ANTOINE LAURENT E 123 04:40:06 19.92
338 ATTALI ALAIN F 80 04:44:39 19.60
339 VINCENT RENE G 36 04:52:39 19.07

Voir -> Les Boucles du Verdon 2008 : Résultats du 160 km

Haut 









Haut  
 Redaktion   Copyright Lesen: Hier klicken Um zu lesen !